Home > Weather > Almería > Past weeks

Flag for Spain Weather for the Past 2 Weeks in Almería, Spain

Now
59 °F

Cool.


Feels Like: 56 °F
Forecast: 45 / 63 °F
Wind: 16 mph from West

Location: Almeria / Aeropuerto

Current Time: Feb 7, 2016 at 7:21:47 AM

Latest Report: Feb 7, 2016 at 6:00 AM


Visibility: N/A

Pressure: 29.98 "Hg

Humidity: 80%

Dew point: 53 °F

Location of AlmeríaLocation

Historic Weather in Almería — Graph

°F

Almería Temperature Yesterday

Maximum temperature yesterday: 62 °F (at 5:00 PM)
Minimum temperature yesterday: 51 °F (at 2:00 AM)
Average temperature yesterday: 56 °F

High & Low Weather Summary for the Past Weeks

 TemperatureHumidityPressure
High70 °F (Jan 23, 2:00 PM)97% (Feb 3, 7:00 AM)30.56 "Hg (Feb 3, 7:00 AM)
Low45 °F (Jan 31, 8:00 AM)37% (Feb 5, 12:00 PM)29.98 "Hg (Feb 7, 5:00 AM)
Average57 °F72%30.41 "Hg
* Reported Jan 23 6:00 AM — Feb 7 6:00 AM, Almería, Weather by CustomWeather, © 2016

Note: Actual official high and low records may vary slightly from our data, if they occured in-between our weather recording intervals... More about our weather records

Advertising

Almería Weather History for the Previous 24 Hours

 ConditionsComfort  
Time TempWeatherWind HumidityBarometerVisibility
6:00 AM
Sun, Feb 7
59 °FCool.16 mph80%29.98 "HgN/A
5:00 AM59 °FCool.18 mph75%29.98 "HgN/A
4:00 AM59 °FCool.23 mph85%30.01 "HgN/A
3:00 AM59 °FCool.24 mph84%30.06 "HgN/A
1:00 AM58 °FCool.18 mph87%30.09 "HgN/A
9:00 PM
Sat, Feb 6
58 °FCool.14 mph87%30.12 "HgN/A
8:00 PM58 °FCool.14 mph84%30.14 "HgN/A
7:00 PM58 °FPassing clouds.14 mph83%30.14 "Hg19 mi
6:00 PM60 °FCool.12 mph75%30.13 "HgN/A
5:00 PM62 °FCool.12 mph73%30.14 "HgN/A
4:00 PM60 °FPartly sunny.12 mph79%30.15 "Hg16 mi
3:00 PM61 °FCool.8 mph78%30.17 "HgN/A
2:00 PM60 °FCool.8 mph75%30.21 "HgN/A
1:00 PM59 °FOvercast.3 mph74%30.24 "Hg12 mi
12:00 PM58 °FCool.2 mph74%30.26 "HgN/A
11:00 AM58 °FCool.No wind70%30.27 "HgN/A
10:00 AM55 °FOvercast.No wind76%30.27 "Hg12 mi
9:00 AM52 °FCool.No wind80%30.26 "HgN/A
8:00 AM52 °FCool.No wind79%30.25 "HgN/A
7:00 AM53 °FOvercast.2 mph74%30.25 "Hg19 mi
Weather by CustomWeather, © 2016

See weather overviewHow to use our weather pages